Вернуться в каталог

DELTA 4 R/B

АктивенHEO
NORAD 29250·ROCKET BODY·🇺🇸 United States

Запущен Jun 28, 2006 с Vandenberg Space Force Base

Loading…

Ближайшие Пролёты (ближайшие 24 часа)

TLE

СвежийSource: Space-Track

Эпоха: Sep 13, 2026, 23:42 UTC

1 29250U 06027B   26256.98779181  .00000030  00000-0  00000-0 0  9997
2 29250  63.0478 271.5921 6554674 255.8669  27.9192  2.17604559 59679

Отслеживайте DELTA 4 R/B в реальном времени с AllMySat

Download on the App Store